Location: Oriwa
(40.7500°S, 175.3333°E)
Time: 14:09:59
(UTC+00:00)

MSX - Pass Details

Date: 03 February 2023
Orbit: 895 x 905 km, 98.9° (Epoch: 30 March)

Event Time Altitude Azimuth Distance (km) Brightness Sun altitude
Exits shadow 14:16:10 42° 251° (WSW) 1,278 4.5 -27.9°
Drops below altitude 10° 14:20:46 10° 206° (SSW) 2,617 6.6 -27.5°
Sets 14:23:18 0° 200° (SSW) 3,565 7.5 -27.3°
